Le nostre stazioni meteo in Italia

Pubblicità
Il mio iltempo24.it
Otranto, Italia (16334): Temperatura & dewpoint: 16.10.2018 09:00:00 - 22.10.2018 09:00:00 (CEST)Otranto, Italia (16334): velocità del vento: 16.10.2018 09:00:00 - 22.10.2018 09:00:00 (CEST)Otranto, Italia (16334): direzione del vento: 16.10.2018 09:00:00 - 22.10.2018 09:00:00 (CEST)Otranto, Italia (16334): reduced air pressure: 16.10.2018 09:00:00 - 22.10.2018 09:00:00 (CEST)Otranto, Italia (16334): precipitazioni: 16.10.2018 09:00:00 - 22.10.2018 09:00:00 (CEST)
Data & Tempo tt [°C] td [°C] ff [km/h] ff [kn] dd ppp [hPa] rr [mm]
22.10.2018 09:00:00 - - - - - - -
22.10.2018 08:00:00 18,7 18,5 11 6 SSE 1012,7 0,0
22.10.2018 07:00:00 16,8 16,7 8 4 SSE 1012,5 -
22.10.2018 06:00:00 15,1 15,0 2 1 S 1012,8 -
22.10.2018 05:00:00 15,2 15,1 4 2 O 1012,6 -
22.10.2018 04:00:00 15,8 15,7 0 0 N 1013,2 -
22.10.2018 03:00:00 15,3 15,2 4 2 O 1014,1 -
22.10.2018 02:00:00 15,9 15,8 4 2 NO 1014,5 0,0
22.10.2018 01:00:00 15,5 15,4 4 2 O 1014,8 -
22.10.2018 00:00:00 16,0 15,8 8 4 O 1015,2 -
21.10.2018 23:00:00 16,8 15,6 5 3 NNO 1015,1 -
21.10.2018 22:00:00 17,2 17,0 4 2 NNO 1015,2 -
21.10.2018 21:00:00 17,2 16,0 4 2 NO 1015,2 -
21.10.2018 20:00:00 17,2 16,0 8 4 NO 1015,3 0,0
21.10.2018 19:00:00 17,7 16,5 8 4 NO 1015,2 -
21.10.2018 18:00:00 19,1 18,2 9 5 N 1014,5 -
21.10.2018 17:00:00 20,0 18,2 18 10 NNE 1014,4 -
21.10.2018 16:00:00 21,0 19,6 16 9 NNO 1014,5 -
21.10.2018 15:00:00 21,4 19,5 15 8 NNE 1014,8 -
21.10.2018 14:00:00 21,4 19,6 22 12 NNE 1015,1 0,0
21.10.2018 13:00:00 21,1 19,0 22 12 NNO 1015,8 -
21.10.2018 12:00:00 21,5 20,6 22 12 NNO 1016,2 -
21.10.2018 11:00:00 20,4 20,3 24 13 NNO 1016,4 -
21.10.2018 10:00:00 19,8 19,7 18 10 NNO 1016,4 -
21.10.2018 09:00:00 17,9 17,8 15 8 NO 1016,5 -
21.10.2018 08:00:00 16,0 15,9 11 6 NO 1016,0 -
21.10.2018 07:00:00 15,9 15,8 11 6 NO 1015,9 -
21.10.2018 06:00:00 16,3 16,2 13 7 NO 1016,1 -
21.10.2018 05:00:00 16,4 16,3 13 7 NO 1016,4 -
21.10.2018 04:00:00 16,7 16,6 15 8 NO 1016,6 -
21.10.2018 03:00:00 17,0 16,9 15 8 NNO 1017,2 -
21.10.2018 02:00:00 17,0 16,9 13 7 NO 1017,5 0,0
21.10.2018 01:00:00 17,1 17,0 13 7 NNO 1017,8 -
21.10.2018 00:00:00 17,2 17,1 11 6 NO 1018,0 -
20.10.2018 23:00:00 17,5 17,4 9 5 NO 1018,4 -
20.10.2018 22:00:00 17,6 17,5 11 6 NNO 1018,2 -
20.10.2018 21:00:00 17,8 17,7 9 5 ONO 1017,9 -
20.10.2018 20:00:00 18,8 18,7 18 10 NO 1017,9 0,0
20.10.2018 19:00:00 19,1 19,0 15 8 NO 1017,8 -
20.10.2018 18:00:00 19,9 19,8 18 10 NNO 1017,6 -
20.10.2018 17:00:00 21,0 20,9 26 14 NO 1017,6 -
20.10.2018 16:00:00 21,9 21,3 26 14 N 1017,5 -
20.10.2018 15:00:00 22,8 22,4 24 13 N 1017,8 -
20.10.2018 14:00:00 22,0 21,9 28 15 N 1018,0 0,0
20.10.2018 13:00:00 21,7 21,6 26 14 NNO 1018,2 -
20.10.2018 12:00:00 21,8 21,7 24 13 NNO 1018,5 -
20.10.2018 11:00:00 21,1 21,0 24 13 N 1018,3 -
20.10.2018 10:00:00 20,4 20,3 24 13 N 1018,3 -
20.10.2018 09:00:00 18,8 18,7 15 8 NNO 1018,4 -
20.10.2018 08:00:00 17,8 17,7 11 6 N 1017,8 -
20.10.2018 07:00:00 18,1 18,0 15 8 NO 1017,6 -
20.10.2018 06:00:00 17,6 17,5 13 7 NNO 1017,5 -
20.10.2018 05:00:00 17,4 17,3 13 7 NO 1017,3 -
20.10.2018 04:00:00 17,3 17,2 13 7 NNO 1016,8 -
20.10.2018 03:00:00 17,5 17,4 15 8 NO 1017,2 -
20.10.2018 02:00:00 17,8 17,7 15 8 NNO 1017,2 0,0
20.10.2018 01:00:00 18,0 17,9 13 7 N 1017,1 -
20.10.2018 00:00:00 18,1 18,0 13 7 NNO 1017,0 -
19.10.2018 23:00:00 18,6 18,5 11 6 NNO 1016,9 -
19.10.2018 22:00:00 18,9 18,8 15 8 N 1016,4 -
19.10.2018 21:00:00 18,6 18,5 13 7 NNO 1016,3 -
19.10.2018 20:00:00 18,9 18,8 16 9 N 1016,0 -
19.10.2018 19:00:00 19,3 19,2 13 7 NNO 1016,0 -
19.10.2018 18:00:00 20,3 20,2 15 8 N 1015,5 -
19.10.2018 17:00:00 21,3 21,2 16 9 N 1015,3 -
19.10.2018 16:00:00 21,9 21,7 16 9 NNO 1015,2 -
19.10.2018 15:00:00 22,2 22,1 18 10 NNE 1015,3 -
19.10.2018 14:00:00 22,0 21,9 15 8 N 1015,5 -
19.10.2018 13:00:00 21,8 21,7 16 9 N 1015,7 -
19.10.2018 12:00:00 21,6 21,5 15 8 N 1015,8 -
19.10.2018 11:00:00 21,1 21,0 13 7 NNE 1015,8 -
19.10.2018 10:00:00 20,4 20,3 15 8 N 1015,4 -
19.10.2018 09:00:00 19,0 18,9 9 5 NNE 1015,2 -
19.10.2018 08:00:00 17,5 17,4 9 5 N 1015,1 -
19.10.2018 07:00:00 17,3 17,2 8 4 NNO 1014,9 -
19.10.2018 06:00:00 17,1 17,0 8 4 NNO 1014,8 -
19.10.2018 05:00:00 16,8 16,7 8 4 NNO 1014,8 -
19.10.2018 04:00:00 17,4 17,3 5 3 NO 1014,7 -
19.10.2018 03:00:00 16,6 16,5 5 3 NO 1014,9 -
19.10.2018 02:00:00 17,2 17,1 2 1 NNE 1014,6 -
19.10.2018 01:00:00 17,7 17,6 4 2 NNE 1014,5 -
19.10.2018 00:00:00 18,6 18,5 5 3 NNE 1014,3 -
18.10.2018 23:00:00 18,5 18,4 5 3 N 1014,7 -
18.10.2018 22:00:00 18,6 18,5 8 4 O 1015,2 -
18.10.2018 21:00:00 19,3 19,2 5 3 SO 1014,9 -
18.10.2018 20:00:00 19,4 19,3 5 3 O 1014,5 0,0
18.10.2018 19:00:00 20,1 20,0 8 4 SO 1014,0 -
18.10.2018 18:00:00 21,7 21,6 9 5 S 1013,2 -
18.10.2018 17:00:00 22,5 22,1 13 7 S 1013,0 -
18.10.2018 16:00:00 23,3 22,7 15 8 S 1013,3 -
18.10.2018 15:00:00 23,3 21,5 15 8 S 1013,4 -
18.10.2018 14:00:00 23,7 23,1 13 7 SSE 1013,7 0,0
18.10.2018 13:00:00 24,7 23,6 8 4 SE 1014,0 -
18.10.2018 12:00:00 24,6 22,6 5 3 SSO 1014,4 -
18.10.2018 11:00:00 23,1 23,0 4 2 S 1014,7 -
18.10.2018 10:00:00 21,5 21,4 5 3 NE 1014,7 -
18.10.2018 09:00:00 19,6 19,5 8 4 NNE 1014,7 -
18.10.2018 08:00:00 17,3 17,2 4 2 N 1014,6 -
18.10.2018 07:00:00 17,9 17,8 9 5 N 1014,2 -
18.10.2018 06:00:00 17,1 17,0 8 4 N 1014,2 -
18.10.2018 05:00:00 16,9 16,8 8 4 NNO 1014,3 -
18.10.2018 04:00:00 17,2 17,1 4 2 NNO 1014,6 -
18.10.2018 03:00:00 17,1 17,0 5 3 NO 1015,1 -
18.10.2018 02:00:00 18,2 18,1 8 4 N 1015,4 0,0
18.10.2018 01:00:00 17,4 17,3 4 2 ONO 1015,8 -
18.10.2018 00:00:00 17,8 17,7 5 3 NNO 1015,9 -
17.10.2018 23:00:00 18,3 18,2 4 2 NO 1016,3 -
17.10.2018 22:00:00 19,6 19,5 4 2 NE 1016,2 -
17.10.2018 21:00:00 19,8 19,7 4 2 NE 1015,9 -
17.10.2018 20:00:00 20,0 19,9 4 2 NE 1015,9 0,0
17.10.2018 19:00:00 20,6 20,5 4 2 N 1015,7 -
17.10.2018 18:00:00 21,9 20,5 5 3 ESE 1015,4 -
17.10.2018 17:00:00 22,7 21,3 9 5 S 1015,6 -
17.10.2018 16:00:00 23,1 22,5 13 7 S 1015,9 -
17.10.2018 15:00:00 23,8 22,4 9 5 S 1016,1 -
17.10.2018 14:00:00 24,3 22,7 8 4 SSE 1016,2 0,0
17.10.2018 13:00:00 24,0 22,2 8 4 S 1016,9 -
17.10.2018 12:00:00 24,4 22,2 5 3 SSE 1017,4 -
17.10.2018 11:00:00 23,3 21,3 5 3 S 1017,6 -
17.10.2018 10:00:00 22,5 21,1 4 2 ESE 1017,6 -
17.10.2018 09:00:00 21,8 21,7 5 3 ESE 1017,7 -
17.10.2018 08:00:00 20,4 20,3 4 2 E 1017,8 0,0
17.10.2018 07:00:00 19,3 19,2 4 2 NE 1017,6 -
17.10.2018 06:00:00 19,6 19,5 4 2 NE 1017,7 -
17.10.2018 05:00:00 19,6 19,5 4 2 E 1017,9 -
17.10.2018 04:00:00 19,5 19,4 4 2 ESE 1017,9 -
17.10.2018 03:00:00 19,3 19,2 4 2 E 1018,3 -
17.10.2018 02:00:00 19,3 19,2 5 3 E 1018,7 0,0
17.10.2018 01:00:00 19,3 19,2 8 4 ESE 1018,9 -
17.10.2018 00:00:00 19,4 19,3 5 3 E 1019,2 -
16.10.2018 23:00:00 19,2 19,1 5 3 ESE 1019,8 -
16.10.2018 22:00:00 19,3 19,2 4 2 SE 1019,9 -
16.10.2018 21:00:00 20,1 20,0 5 3 SE 1019,6 -
16.10.2018 20:00:00 20,6 20,5 8 4 S 1019,5 0,0
16.10.2018 19:00:00 21,0 20,9 11 6 S 1019,3 -
16.10.2018 18:00:00 21,7 21,6 11 6 SSE 1019,2 -
16.10.2018 17:00:00 22,6 22,2 15 8 SSE 1019,0 -
16.10.2018 16:00:00 23,4 22,0 11 6 SSE 1018,9 -
16.10.2018 15:00:00 23,7 22,6 16 9 S 1019,1 -
16.10.2018 14:00:00 23,8 22,2 16 9 S 1019,2 0,0
16.10.2018 13:00:00 23,7 22,4 16 9 SSE 1019,5 -
16.10.2018 12:00:00 23,8 22,7 18 10 S 1019,6 -
16.10.2018 11:00:00 23,6 22,2 16 9 SE 1019,5 -
16.10.2018 10:00:00 22,6 21,5 16 9 SSE 1019,5 -
16.10.2018 09:00:00 22,2 22,0 13 7 SSE 1019,2 -

tt = Temperatura
td = dewpoint
ff = velocità del vento
dd = direzione del vento
ppp = reduced air pressure
rr = precipitazioni

Stazioni seguenti

WeatherPro
AMSI
MeteoEarth